EZY6AN EHAM-EGGW

Flight info

Callsign EZY6AN
Flight time 0h 45m
Altitude 24000
Route VALKO5E IDRID M40 RINIS RINIS1N
Aircraft A320/M-SDE2E3FGHIJ1RWXYZ/LB1

Departure

Time 2026-04-17 10:35
Airport Amsterdam Airport Schiphol (EHAM)

Arrival

Time 2026-04-17 11:20
Airport London Luton Airport (EGGW)
Time Latitude Longitude Altitude Speed Heading
2026-04-17 10:10 52.31024 4.75465 -1 ft 0 kts 148°
2026-04-17 10:25 52.31027 4.75462 -1 ft 3 kts 149°
2026-04-17 10:25 52.31050 4.75440 -1 ft 4 kts 145°
2026-04-17 10:26 52.31062 4.75416 -1 ft 3 kts 85°
2026-04-17 10:26 52.31059 4.75394 -1 ft 0 kts 69°
2026-04-17 10:28 52.31059 4.75395 -1 ft 1 kts 69°
2026-04-17 10:28 52.31113 4.75463 -1 ft 14 kts 14°
2026-04-17 10:28 52.31209 4.75460 -1 ft 13 kts 356°
2026-04-17 10:28 52.31313 4.75452 -1 ft 15 kts 357°
2026-04-17 10:29 52.31390 4.75445 -1 ft 8 kts 356°
2026-04-17 10:29 52.31440 4.75441 -1 ft 7 kts 356°
2026-04-17 10:29 52.31498 4.75452 -1 ft 11 kts 33°
2026-04-17 10:29 52.31517 4.75560 -1 ft 10 kts 87°
2026-04-17 10:30 52.31517 4.75581 -1 ft 10 kts 87°
2026-04-17 10:30 52.31519 4.75629 -1 ft 9 kts 88°
2026-04-17 10:30 52.31521 4.75732 -1 ft 9 kts 88°
2026-04-17 10:30 52.31524 4.75825 -1 ft 8 kts 86°
2026-04-17 10:31 52.31527 4.75909 -1 ft 7 kts 86°
2026-04-17 10:31 52.31530 4.75982 -1 ft 6 kts 86°
2026-04-17 10:31 52.31532 4.76047 -11 ft 5 kts 86°
2026-04-17 10:31 52.31536 4.76156 -1 ft 18 kts 86°
2026-04-17 10:32 52.31543 4.76368 -1 ft 19 kts 87°
2026-04-17 10:32 52.31550 4.76592 -1 ft 21 kts 87°
2026-04-17 10:32 52.31557 4.76837 -1 ft 23 kts 87°
2026-04-17 10:32 52.31569 4.77103 -1 ft 24 kts 86°
2026-04-17 10:33 52.31580 4.77389 -1 ft 26 kts 86°
2026-04-17 10:33 52.31590 4.77690 -1 ft 27 kts 88°
2026-04-17 10:33 52.31591 4.77930 0 ft 18 kts 122°
2026-04-17 10:33 52.31522 4.77962 1 ft 0 kts 184°
2026-04-17 10:34 52.31383 4.77947 -1 ft 57 kts 184°
2026-04-17 10:34 52.30759 4.77890 -4 ft 120 kts 183°
2026-04-17 10:34 52.29769 4.77789 129 ft 151 kts 185°
2026-04-17 10:35 52.28732 4.77776 818 ft 151 kts 173°
2026-04-17 10:35 52.27658 4.78138 1294 ft 170 kts 168°
2026-04-17 10:35 52.26439 4.78676 1692 ft 193 kts 166°
2026-04-17 10:35 52.25065 4.79296 2150 ft 215 kts 166°
2026-04-17 10:36 52.23607 4.79936 2970 ft 219 kts 171°
2026-04-17 10:36 52.22096 4.79884 3830 ft 220 kts 198°
2026-04-17 10:36 52.20782 4.78664 4682 ft 221 kts 225°
2026-04-17 10:36 52.19926 4.76483 5283 ft 243 kts 252°
2026-04-17 10:37 52.19857 4.73647 5909 ft 260 kts 277°
2026-04-17 10:37 52.20232 4.70723 6803 ft 266 kts 280°
2026-04-17 10:37 52.20659 4.67767 7682 ft 270 kts 280°
2026-04-17 10:37 52.21086 4.64768 8575 ft 273 kts 279°
2026-04-17 10:38 52.21509 4.61736 9478 ft 276 kts 279°
2026-04-17 10:38 52.21924 4.58660 10355 ft 279 kts 276°
2026-04-17 10:38 52.22060 4.55428 10755 ft 297 kts 263°
2026-04-17 10:38 52.21861 4.53179 10989 ft 307 kts 254°
2026-04-17 10:39 52.21208 4.49768 11652 ft 314 kts 249°
2026-04-17 10:39 52.20494 4.46436 12432 ft 318 kts 249°
2026-04-17 10:39 52.19763 4.43018 13206 ft 322 kts 249°
2026-04-17 10:39 52.19027 4.39544 13995 ft 325 kts 250°
2026-04-17 10:40 52.18287 4.36038 14686 ft 329 kts 250°
2026-04-17 10:40 52.17539 4.32505 15393 ft 332 kts 249°
2026-04-17 10:40 52.16779 4.28935 16086 ft 335 kts 249°
2026-04-17 10:40 52.16011 4.25340 16776 ft 338 kts 249°
2026-04-17 10:41 52.15227 4.21665 17484 ft 341 kts 250°
2026-04-17 10:41 52.14448 4.18002 18166 ft 344 kts 250°
2026-04-17 10:41 52.13663 4.14314 18793 ft 347 kts 250°
2026-04-17 10:41 52.12866 4.10592 19380 ft 349 kts 250°
2026-04-17 10:42 52.12063 4.06843 19975 ft 352 kts 250°
2026-04-17 10:42 52.11251 4.03066 20566 ft 355 kts 250°
2026-04-17 10:42 52.10432 3.99259 21160 ft 358 kts 250°
2026-04-17 10:42 52.09606 3.95426 21747 ft 361 kts 250°
2026-04-17 10:43 52.08770 3.91567 22333 ft 364 kts 250°
2026-04-17 10:43 52.07927 3.87671 22947 ft 366 kts 250°
2026-04-17 10:43 52.07081 3.83758 23542 ft 369 kts 250°
2026-04-17 10:43 52.06228 3.79818 24073 ft 372 kts 250°
2026-04-17 10:44 52.05451 3.76247 24518 ft 374 kts 250°
2026-04-17 10:44 52.04724 3.72913 24923 ft 375 kts 251°
2026-04-17 10:44 52.03849 3.68916 25388 ft 377 kts 251°
2026-04-17 10:44 52.02982 3.64941 25841 ft 379 kts 251°
2026-04-17 10:45 52.02095 3.60894 26309 ft 381 kts 251°
2026-04-17 10:45 52.01202 3.56833 26762 ft 383 kts 251°
2026-04-17 10:45 52.00309 3.52752 27201 ft 385 kts 251°
2026-04-17 10:45 51.99548 3.48586 27642 ft 386 kts 258°
2026-04-17 10:46 51.99084 3.44293 28024 ft 385 kts 261°
2026-04-17 10:46 51.98704 3.40091 28204 ft 369 kts 261°
2026-04-17 10:46 51.98336 3.36024 28218 ft 362 kts 261°
2026-04-17 10:47 51.97589 3.28012 28215 ft 358 kts 261°
2026-04-17 10:47 51.96829 3.20038 28214 ft 358 kts 261°
2026-04-17 10:48 51.96204 3.12042 28217 ft 358 kts 263°
2026-04-17 10:48 51.95704 3.04018 28214 ft 358 kts 263°
2026-04-17 10:49 51.95178 2.95992 28214 ft 358 kts 263°
2026-04-17 10:49 51.94655 2.88028 27984 ft 349 kts 263°
2026-04-17 10:49 51.94401 2.84156 27720 ft 342 kts 263°
2026-04-17 10:50 51.94145 2.80341 27460 ft 339 kts 262°
2026-04-17 10:50 51.93890 2.76563 27153 ft 335 kts 262°
2026-04-17 10:50 51.93645 2.72955 26759 ft 331 kts 262°
2026-04-17 10:50 51.93392 2.69258 26361 ft 328 kts 262°
2026-04-17 10:51 51.93143 2.65604 25961 ft 325 kts 262°
2026-04-17 10:51 51.92897 2.61973 25558 ft 322 kts 262°
2026-04-17 10:51 51.92653 2.58382 25163 ft 320 kts 262°
2026-04-17 10:51 51.92410 2.54814 24755 ft 318 kts 262°
2026-04-17 10:52 51.92166 2.51266 24348 ft 316 kts 262°
2026-04-17 10:52 51.91919 2.47749 23946 ft 314 kts 262°
2026-04-17 10:52 51.91670 2.44238 23506 ft 313 kts 261°
2026-04-17 10:52 51.91422 2.40759 23103 ft 310 kts 261°
2026-04-17 10:53 51.91178 2.37305 22715 ft 307 kts 261°
2026-04-17 10:53 51.90936 2.33879 22340 ft 307 kts 261°
2026-04-17 10:53 51.90745 2.30376 22102 ft 316 kts 265°
2026-04-17 10:53 51.90667 2.26820 21676 ft 316 kts 266°
2026-04-17 10:54 51.90602 2.23266 21351 ft 315 kts 266°
2026-04-17 10:54 51.90531 2.19722 21037 ft 314 kts 265°
2026-04-17 10:54 51.90452 2.16184 20712 ft 313 kts 265°
2026-04-17 10:54 51.90372 2.12668 20389 ft 312 kts 265°
2026-04-17 10:55 51.90296 2.09158 20065 ft 312 kts 265°
2026-04-17 10:55 51.90215 2.05657 19748 ft 311 kts 265°
2026-04-17 10:55 51.90126 2.02166 19432 ft 310 kts 265°
2026-04-17 10:55 51.90033 1.98691 19110 ft 309 kts 265°
2026-04-17 10:56 51.89940 1.95219 18795 ft 308 kts 265°
2026-04-17 10:56 51.89940 1.91760 18471 ft 308 kts 274°
2026-04-17 10:56 51.90446 1.88398 18143 ft 309 kts 289°
2026-04-17 10:56 51.91483 1.85333 18063 ft 314 kts 301°
2026-04-17 10:57 51.92848 1.82546 17960 ft 316 kts 305°
2026-04-17 10:57 51.94271 1.79830 17862 ft 316 kts 306°
2026-04-17 10:57 51.95691 1.77110 17758 ft 316 kts 305°
2026-04-17 10:57 51.97105 1.74383 17660 ft 315 kts 305°
2026-04-17 10:58 51.98514 1.71659 17546 ft 315 kts 305°
2026-04-17 10:58 51.99916 1.68934 17429 ft 315 kts 305°
2026-04-17 10:58 52.01338 1.66175 17333 ft 314 kts 305°
2026-04-17 10:58 52.02739 1.63459 17230 ft 314 kts 305°
2026-04-17 10:59 52.04138 1.60739 17131 ft 313 kts 305°
2026-04-17 10:59 52.05529 1.58018 17027 ft 313 kts 305°
2026-04-17 10:59 52.06923 1.55299 16918 ft 313 kts 305°
2026-04-17 10:59 52.08318 1.52585 16816 ft 312 kts 305°
2026-04-17 11:00 52.09708 1.49882 16712 ft 312 kts 305°
2026-04-17 11:00 52.11094 1.47174 16629 ft 311 kts 305°
2026-04-17 11:00 52.12481 1.44462 16509 ft 312 kts 304°
2026-04-17 11:00 52.13864 1.41751 16407 ft 311 kts 304°
2026-04-17 11:01 52.15193 1.38980 16307 ft 307 kts 297°
2026-04-17 11:01 52.16119 1.35897 16198 ft 301 kts 284°
2026-04-17 11:01 52.16597 1.32613 16099 ft 297 kts 275°
2026-04-17 11:01 52.16877 1.29274 16002 ft 304 kts 274°
2026-04-17 11:02 52.17145 1.25720 15905 ft 325 kts 274°
2026-04-17 11:02 52.17431 1.22029 15796 ft 330 kts 274°
2026-04-17 11:02 52.17724 1.18310 15691 ft 331 kts 274°
2026-04-17 11:02 52.18016 1.14593 15580 ft 331 kts 274°
2026-04-17 11:03 52.18306 1.10873 15474 ft 331 kts 274°
2026-04-17 11:03 52.18595 1.07155 15367 ft 330 kts 274°
2026-04-17 11:03 52.18883 1.03441 15266 ft 330 kts 274°
2026-04-17 11:03 52.19164 0.99732 15152 ft 330 kts 274°
2026-04-17 11:04 52.19446 0.96028 15051 ft 329 kts 273°
2026-04-17 11:04 52.19727 0.92328 14927 ft 329 kts 273°
2026-04-17 11:04 52.20009 0.88640 14819 ft 328 kts 273°
2026-04-17 11:04 52.20290 0.84947 14703 ft 328 kts 273°
2026-04-17 11:05 52.20567 0.81260 14609 ft 327 kts 273°
2026-04-17 11:05 52.20845 0.77582 14501 ft 327 kts 273°
2026-04-17 11:05 52.21122 0.73902 14392 ft 327 kts 273°
2026-04-17 11:05 52.21395 0.70230 14290 ft 326 kts 273°
2026-04-17 11:06 52.21669 0.66556 14210 ft 326 kts 273°
2026-04-17 11:06 52.21937 0.62891 14043 ft 324 kts 273°
2026-04-17 11:06 52.22199 0.59288 13890 ft 316 kts 273°
2026-04-17 11:06 52.22463 0.55772 13615 ft 310 kts 273°
2026-04-17 11:07 52.22721 0.52321 13323 ft 304 kts 273°
2026-04-17 11:07 52.22966 0.48976 13054 ft 298 kts 273°
2026-04-17 11:07 52.23207 0.45644 12767 ft 293 kts 273°
2026-04-17 11:07 52.23440 0.42377 12483 ft 288 kts 273°
2026-04-17 11:08 52.23668 0.39151 12206 ft 283 kts 273°
2026-04-17 11:08 52.23895 0.35976 11928 ft 280 kts 274°
2026-04-17 11:08 52.24123 0.32825 11652 ft 279 kts 274°
2026-04-17 11:08 52.24320 0.29685 11377 ft 277 kts 268°
2026-04-17 11:09 52.24002 0.26647 11093 ft 271 kts 246°
2026-04-17 11:09 52.22991 0.24083 10719 ft 269 kts 228°
2026-04-17 11:09 52.21694 0.21961 10332 ft 259 kts 225°
2026-04-17 11:10 52.19174 0.18055 9512 ft 241 kts 225°
2026-04-17 11:10 52.17983 0.16190 9075 ft 235 kts 225°
2026-04-17 11:10 52.16811 0.14353 8639 ft 232 kts 225°
2026-04-17 11:10 52.15653 0.12541 8371 ft 230 kts 225°
2026-04-17 11:11 52.14504 0.10733 8130 ft 229 kts 225°
2026-04-17 11:11 52.13364 0.08931 7875 ft 226 kts 225°
2026-04-17 11:11 52.12266 0.07200 7613 ft 214 kts 225°
2026-04-17 11:11 52.11225 0.05559 7363 ft 203 kts 225°
2026-04-17 11:12 52.10227 0.03991 7117 ft 197 kts 225°
2026-04-17 11:12 52.09247 0.02451 6870 ft 195 kts 225°
2026-04-17 11:12 52.08276 0.00931 6628 ft 193 kts 224°
2026-04-17 11:12 52.07311 -0.00576 6356 ft 192 kts 225°
2026-04-17 11:13 52.06353 -0.02076 6101 ft 190 kts 225°
2026-04-17 11:13 52.05406 -0.03554 5841 ft 188 kts 225°
2026-04-17 11:13 52.04505 -0.04962 5589 ft 186 kts 225°
2026-04-17 11:13 52.03595 -0.06385 5340 ft 185 kts 225°
2026-04-17 11:14 52.02732 -0.07712 5120 ft 185 kts 221°
2026-04-17 11:14 52.01669 -0.08889 4874 ft 186 kts 211°
2026-04-17 11:14 52.00476 -0.09684 4607 ft 187 kts 200°
2026-04-17 11:14 51.99194 -0.10071 4346 ft 189 kts 188°
2026-04-17 11:15 51.97958 -0.10036 4105 ft 190 kts 178°
2026-04-17 11:15 51.97076 -0.09777 3930 ft 191 kts 172°
2026-04-17 11:15 51.95786 -0.09258 3677 ft 189 kts 176°
2026-04-17 11:15 51.94501 -0.09283 3431 ft 183 kts 196°
2026-04-17 11:16 51.93332 -0.10027 3175 ft 180 kts 213°
2026-04-17 11:16 51.92391 -0.11310 3018 ft 174 kts 228°
2026-04-17 11:16 51.91734 -0.12873 3034 ft 160 kts 239°
2026-04-17 11:16 51.91322 -0.14457 3004 ft 146 kts 247°
2026-04-17 11:17 51.91040 -0.15996 2944 ft 140 kts 249°
2026-04-17 11:17 51.90783 -0.17503 2810 ft 138 kts 249°
2026-04-17 11:17 51.90526 -0.19005 2638 ft 138 kts 250°
2026-04-17 11:17 51.90271 -0.20498 2455 ft 136 kts 250°
2026-04-17 11:18 51.90021 -0.21963 2275 ft 134 kts 249°
2026-04-17 11:18 51.89773 -0.23409 2125 ft 133 kts 248°
2026-04-17 11:18 51.89529 -0.24833 1926 ft 130 kts 249°
2026-04-17 11:18 51.89289 -0.26230 1746 ft 131 kts 249°
2026-04-17 11:19 51.89047 -0.27642 1572 ft 130 kts 249°
2026-04-17 11:19 51.88802 -0.29065 1362 ft 132 kts 248°
2026-04-17 11:19 51.88577 -0.30492 1200 ft 131 kts 249°
2026-04-17 11:19 51.88307 -0.31897 995 ft 131 kts 249°
2026-04-17 11:20 51.88072 -0.33312 823 ft 129 kts 250°
2026-04-17 11:20 51.87833 -0.34705 642 ft 128 kts 249°
2026-04-17 11:20 51.87597 -0.36072 520 ft 117 kts 250°
2026-04-17 11:20 51.87439 -0.36972 523 ft 40 kts 255°
2026-04-17 11:21 51.87382 -0.37309 521 ft 30 kts 254°
2026-04-17 11:21 51.87329 -0.37616 520 ft 17 kts 260°
2026-04-17 11:21 51.87408 -0.37669 520 ft 16 kts 34°
2026-04-17 11:21 51.87482 -0.37546 522 ft 15 kts 46°
2026-04-17 11:22 51.87565 -0.37454 522 ft 14 kts 13°
2026-04-17 11:22 51.87654 -0.37487 522 ft 13 kts 331°
2026-04-17 11:22 51.87713 -0.37614 518 ft 17 kts 293°
2026-04-17 11:22 51.87760 -0.37785 523 ft 16 kts 294°
2026-04-17 11:23 51.87812 -0.37951 523 ft 13 kts 307°
2026-04-17 11:23 51.87861 -0.37999 523 ft 8 kts
2026-04-17 11:23 51.87885 -0.37947 523 ft 4 kts 74°
2026-04-17 11:23 51.87888 -0.37926 523 ft 0 kts 75°